Flag for United Kingdom

Past Weather in Bristol, England, United Kingdom — Yesterday and Last 2 Weeks

Now
61 °F

Low clouds.


Feels Like: 61 °F
Forecast: 62 / 56 °F
Wind: 13 mph from West

Location: Bristol / Lulsgate

Current Time: Jul 4, 2020 at 5:24:27 pm

Latest Report: Jul 4, 2020 at 4:50 pm


Visibility: N/A

Pressure: 29.86 "Hg

Humidity: 100%

Dew Point: 61 °F

Location of BristolLocation

Past Weather in Bristol — Graph

°F

Bristol Temperature Yesterday

Maximum temperature yesterday: 63 °F (at 1:50 pm)
Minimum temperature yesterday: 54 °F (at 12:20 am)
Average temperature yesterday: 57 °F

High & Low Weather Summary for the Past Weeks

 TemperatureHumidityPressure
High86 °F (Jun 25, 2:20 pm)100% (Jun 20, 1:50 am)30.27 "Hg (Jun 20, 1:50 am)
Low50 °F (Jun 22, 2:20 am)31% (Jun 25, 3:20 pm)29.56 "Hg (Jun 27, 8:20 am)
Average61 °F79%29.92 "Hg
* Reported Jun 19 4:20 pm — Jul 4 4:20 pm, Bristol. Weather by CustomWeather, © 2020

Note: Actual official high and low records may vary slightly from our data, if they occured in-between our weather recording intervals... More about our weather records

Bristol Weather History for the Previous 24 Hours

Scroll right to see more
 ConditionsComfort  
Time TempWeatherWind HumidityBarometerVisibility
4:20 pm
Sat, Jul 4
61 °FMostly cloudy.18 mph100%29.86 "HgN/A
3:50 pm61 °FLow clouds.16 mph100%29.86 "HgN/A
3:20 pm61 °FLow clouds.16 mph100%29.86 "Hg4 mi
2:50 pm61 °FLow clouds.14 mph100%29.86 "Hg4 mi
2:20 pm61 °FFog.13 mph100%29.86 "Hg2 mi
1:50 pm61 °FLight rain. Low clouds.10 mph100%29.86 "Hg2 mi
1:20 pm61 °FLight rain. Mostly cloudy.13 mph100%29.86 "HgN/A
12:50 pm61 °FLight rain. Mostly cloudy.10 mph100%29.86 "Hg2 mi
12:20 pm61 °FOvercast.14 mph94%29.86 "HgN/A
11:50 am61 °FLow clouds.12 mph94%29.86 "HgN/A
11:20 am61 °FLow clouds.14 mph94%29.86 "HgN/A
10:50 am61 °FLow clouds.16 mph94%29.86 "HgN/A
10:20 am61 °FLow clouds.17 mph94%29.86 "HgN/A
9:50 am61 °FLow clouds.13 mph94%29.83 "HgN/A
9:20 am59 °FMostly cloudy.10 mph100%29.83 "HgN/A
8:50 am59 °FMostly cloudy.12 mph100%29.86 "HgN/A
8:20 am59 °FLow clouds.10 mph100%29.86 "HgN/A
7:50 am59 °FLow clouds.12 mph100%29.83 "HgN/A
7:20 am59 °FDrizzle. Low clouds.15 mph100%29.86 "Hg2 mi
6:50 am59 °FDrizzle. Fog.15 mph100%29.86 "Hg1 mi
6:20 am59 °FRain. Fog.13 mph100%29.83 "Hg1 mi
5:50 am59 °FDrizzle. Fog.13 mph100%29.83 "Hg0 mi
5:20 am59 °FDrizzle. Low clouds.14 mph100%29.83 "Hg2 mi
4:50 am59 °FLight rain. Mostly cloudy.14 mph94%29.83 "HgN/A
4:20 am59 °FLow clouds.13 mph94%29.83 "HgN/A
3:50 am59 °FLow clouds.12 mph94%29.83 "HgN/A
3:20 am59 °FLow clouds.13 mph94%29.86 "HgN/A
2:50 am59 °FLow clouds.13 mph94%29.86 "HgN/A
2:20 am59 °FLow clouds.12 mph94%29.86 "HgN/A
1:50 am59 °FLight rain. Low clouds.14 mph94%29.86 "HgN/A
1:20 am59 °FLight rain. Low clouds.12 mph94%29.86 "HgN/A
12:50 am57 °FDrizzle. Low clouds.13 mph100%29.89 "Hg2 mi
12:20 am57 °FLight rain. Low clouds.12 mph100%29.89 "Hg6 mi
11:50 pm
Fri, Jul 3
57 °FLight rain. Mostly cloudy.13 mph100%29.89 "Hg4 mi
11:20 pm57 °FLight rain. Low clouds.12 mph94%29.89 "Hg4 mi
10:50 pm57 °FLow clouds.10 mph94%29.92 "HgN/A
10:20 pm57 °FLow clouds.13 mph94%29.92 "HgN/A
9:50 pm57 °FLow clouds.13 mph94%29.92 "HgN/A
9:20 pm57 °FMostly cloudy.12 mph94%29.92 "HgN/A
8:50 pm57 °FMostly cloudy.13 mph94%29.92 "HgN/A
8:20 pm57 °FLight rain. Low clouds.13 mph94%29.92 "HgN/A
7:50 pm55 °FLight rain. Mostly cloudy.13 mph100%29.92 "Hg6 mi
7:20 pm55 °FLight rain. Mostly cloudy.13 mph100%29.95 "HgN/A
6:50 pm55 °FLight rain. Low clouds.12 mph100%29.95 "HgN/A
6:20 pm55 °FLight rain. Mostly cloudy.14 mph100%29.95 "HgN/A
5:50 pm57 °FLight rain. Mostly cloudy.14 mph94%29.95 "Hg6 mi
5:20 pm57 °FLight rain. Partly sunny.15 mph94%29.98 "Hg5 mi
Weather by CustomWeather, © 2020

See weather overview